Change the Weather History Date:

Tuesday, September 18, 2012

  Actual Average (KHUF) Record (KHUF)
Temperature  
Mean Temperature 53 °F 65 °F  
Max Temperature 66 °F 78 °F 95 °F (1954)
Min Temperature 40 °F 53 °F 41 °F (1956)
Degree Days  
Heating Degree Days 12 2  
Month to date heating degree days 18  
Since 1 July heating degree days 23  
Cooling Degree Days 0 3  
Month to date cooling degree days 77  
Year to date cooling degree days 956  
Growing Degree Days 3 (Base 50)    
Moisture  
Dew Point 44 °F    
Average Humidity 66    
Maximum Humidity 94    
Minimum Humidity 33    
Precipitation  
Precipitation 0.00 in 0.10 in 0.88 in (2006)
Month to date precipitation 2.22  
Year to date precipitation 33.50  
Sea Level Pressure  
Sea Level Pressure 29.92 in    
Wind  
Wind Speed 11 mph (NW)    
Max Wind Speed 20 mph    
Max Gust Speed 28 mph    
Visibility 10 miles    
Events      
T = Trace of Precipitation, MM = Missing Value Source: NWS Daily Summary

Daily Weather History Graph

Daily Weather History Graph

Search for Another Location

Airport or City:

Trip Planner

Search our weather history database for the weather conditions in past years. The results will help you decide how hot, cold, wet, or windy it might be!

Date:

Astronomy

Sep. 18, 2012 Rise Set
Actual Time 6:35 AM CDT 6:53 PM CDT
Civil Twilight 6:08 AM CDT 7:20 PM CDT
Nautical Twilight 5:36 AM CDT 7:52 PM CDT
Astronomical Twilight 5:04 AM CDT 8:24 PM CDT
Moon 9:33 AM CDT (9/18) 8:17 PM CDT (9/18)
Length of Visible Light 13h 12m
Length of Day
12h 18m
Waxing Crescent, 9% of the Moon is Illuminated
Sep 18
Waxing Crescent
Sep 22
First Quarter
Sep 29
Full
Oct 8
Last Quarter
Oct 15
New

Hourly Weather History & Observations

Time (CDT) Temp. Dew Point Humidity Pressure Visibility Wind Dir Wind Speed Gust Speed Precip Events Conditions
12:15 AM 64.0 °F 61.7 °F 92% 29.77 in 10.0 mi NNW 10.4 mph - N/A   Mostly Cloudy
12:35 AM 63.5 °F 60.8 °F 91% 29.76 in 10.0 mi NNW 6.9 mph - N/A   Mostly Cloudy
12:55 AM 63.1 °F 60.8 °F 92% 29.77 in 10.0 mi NW 12.7 mph - N/A   Overcast
1:15 AM 61.3 °F 59.0 °F 92% 29.77 in 10.0 mi NNW 15.0 mph 20.7 mph N/A   Overcast
1:35 AM 60.3 °F 56.7 °F 88% 29.77 in 10.0 mi NNW 12.7 mph 19.6 mph N/A   Overcast
1:55 AM 59.5 °F 55.0 °F 85% 29.78 in 10.0 mi NNW 8.1 mph 17.3 mph N/A   Overcast
2:15 AM 59.0 °F 55.0 °F 87% 29.78 in 10.0 mi NNW 11.5 mph - N/A   Overcast
2:35 AM 59.0 °F 55.0 °F 87% 29.78 in 10.0 mi NNW 9.2 mph 19.6 mph N/A   Overcast
2:55 AM 59.0 °F 55.4 °F 88% 29.78 in 10.0 mi NNW 10.4 mph - N/A   Overcast
3:15 AM 58.6 °F 55.4 °F 89% 29.78 in 10.0 mi NW 10.4 mph - N/A   Overcast
3:35 AM 58.3 °F 54.1 °F 86% 29.78 in 10.0 mi NNW 10.4 mph 17.3 mph N/A   Overcast
3:55 AM 57.7 °F 53.8 °F 87% 29.79 in 10.0 mi NNW 12.7 mph - N/A   Overcast
4:15 AM 56.8 °F 52.9 °F 87% 29.79 in 10.0 mi NW 12.7 mph 18.4 mph N/A   Overcast
4:35 AM 56.3 °F 52.3 °F 87% 29.80 in 10.0 mi NW 13.8 mph 24.2 mph N/A   Overcast
4:55 AM 55.8 °F 51.8 °F 87% 29.80 in 10.0 mi NW 12.7 mph 20.7 mph N/A   Overcast
5:15 AM 55.6 °F 51.4 °F 86% 29.80 in 10.0 mi NW 16.1 mph 21.9 mph N/A   Overcast
5:35 AM 55.0 °F 51.3 °F 87% 29.81 in 10.0 mi NW 9.2 mph 18.4 mph N/A   Overcast
5:55 AM 54.7 °F 51.1 °F 88% 29.82 in 10.0 mi NW 11.5 mph - N/A   Overcast
6:15 AM 54.5 °F 51.1 °F 88% 29.83 in 10.0 mi NW 12.7 mph 17.3 mph N/A   Overcast
6:35 AM 53.6 °F 50.5 °F 89% 29.84 in 10.0 mi NW 13.8 mph 19.6 mph N/A   Mostly Cloudy
6:55 AM 52.7 °F 49.1 °F 88% 29.85 in 10.0 mi NW 12.7 mph 20.7 mph N/A   Mostly Cloudy
7:15 AM 51.4 °F 48.9 °F 91% 29.85 in 10.0 mi NW 6.9 mph - N/A   Scattered Clouds
7:35 AM 51.8 °F 49.1 °F 90% 29.86 in 10.0 mi NW 12.7 mph 19.6 mph N/A   Mostly Cloudy
7:55 AM 51.8 °F 48.4 °F 88% 29.87 in 10.0 mi NW 10.4 mph 21.9 mph N/A   Overcast
8:15 AM 52.0 °F 48.4 °F 88% 29.88 in 10.0 mi NW 12.7 mph 19.6 mph N/A   Mostly Cloudy
8:35 AM 54.5 °F 48.2 °F 79% 29.88 in 10.0 mi NW 15.0 mph 20.7 mph N/A   Scattered Clouds
8:55 AM 55.4 °F 47.3 °F 74% 29.89 in 10.0 mi NW 10.4 mph 21.9 mph N/A   Clear
9:15 AM 56.5 °F 46.6 °F 69% 29.90 in 10.0 mi NNW 11.5 mph 20.7 mph N/A   Clear
9:35 AM 58.1 °F 45.1 °F 62% 29.90 in 10.0 mi NNW 13.8 mph 20.7 mph N/A   Clear
9:55 AM 58.8 °F 42.3 °F 54% 29.91 in 10.0 mi NNW 11.5 mph 24.2 mph N/A   Clear
10:15 AM 59.4 °F 41.4 °F 51% 29.91 in 10.0 mi NW 16.1 mph 26.5 mph N/A   Clear
10:35 AM 59.9 °F 39.9 °F 48% 29.91 in 10.0 mi NW 17.3 mph 27.6 mph N/A   Clear
10:55 AM 60.3 °F 38.3 °F 44% 29.91 in 10.0 mi NNW 19.6 mph 25.3 mph N/A   Clear
11:15 AM 61.5 °F 40.3 °F 46% 29.91 in 10.0 mi NW 16.1 mph 24.2 mph N/A   Clear
11:35 AM 61.7 °F 40.1 °F 45% 29.91 in 10.0 mi NNW 13.8 mph 21.9 mph N/A   Clear
11:55 AM 62.2 °F 39.7 °F 44% 29.92 in 10.0 mi NNW 16.1 mph 25.3 mph N/A   Clear
12:15 PM 63.1 °F 39.6 °F 42% 29.92 in 10.0 mi NNW 17.3 mph 25.3 mph N/A   Clear
12:35 PM 62.8 °F 39.4 °F 42% 29.92 in 10.0 mi NNW 13.8 mph 24.2 mph N/A   Clear
12:55 PM 63.3 °F 39.7 °F 42% 29.92 in 10.0 mi NW 12.7 mph 21.9 mph N/A   Scattered Clouds
1:15 PM 64.4 °F 39.6 °F 40% 29.93 in 10.0 mi NNW 15.0 mph 25.3 mph N/A   Scattered Clouds
1:35 PM 64.0 °F 39.0 °F 40% 29.93 in 10.0 mi NW 13.8 mph 20.7 mph N/A   Scattered Clouds
1:55 PM 64.0 °F 37.8 °F 38% 29.93 in 10.0 mi NW 18.4 mph 25.3 mph N/A   Mostly Cloudy
2:15 PM 66.0 °F 36.7 °F 34% 29.93 in 10.0 mi NW 17.3 mph 21.9 mph N/A   Scattered Clouds
2:35 PM 66.2 °F 38.1 °F 36% 29.93 in 10.0 mi NW 15.0 mph 25.3 mph N/A   Scattered Clouds
2:55 PM 66.2 °F 37.4 °F 35% 29.94 in 10.0 mi NW 18.4 mph 24.2 mph N/A   Scattered Clouds
3:15 PM 65.5 °F 37.2 °F 35% 29.96 in 10.0 mi NNW 15.0 mph 19.6 mph N/A   Scattered Clouds
3:35 PM 63.9 °F 35.6 °F 35% 29.96 in 10.0 mi NNW 13.8 mph 21.9 mph N/A   Scattered Clouds
3:55 PM 61.5 °F 36.3 °F 39% 29.97 in 10.0 mi NW 8.1 mph 11.5 mph N/A   Scattered Clouds
4:15 PM 63.9 °F 35.2 °F 35% 29.97 in 10.0 mi NW 12.7 mph 21.9 mph N/A   Clear
4:35 PM 62.6 °F 35.6 °F 37% 29.97 in 10.0 mi NW 5.8 mph - N/A   Clear
4:55 PM 63.7 °F 35.2 °F 35% 29.97 in 10.0 mi NNW 12.7 mph 18.4 mph N/A   Scattered Clouds
5:15 PM 64.2 °F 34.3 °F 33% 29.97 in 10.0 mi NW 15.0 mph 19.6 mph N/A   Scattered Clouds
5:35 PM 61.5 °F 33.4 °F 35% 29.99 in 10.0 mi NW 10.4 mph 18.4 mph N/A   Clear
5:55 PM 61.0 °F 34.3 °F 37% 29.99 in 10.0 mi NW 9.2 mph 16.1 mph N/A   Clear
6:15 PM 60.6 °F 33.4 °F 36% 30.00 in 10.0 mi NW 9.2 mph - N/A   Clear
6:35 PM 58.6 °F 36.1 °F 43% 30.00 in 10.0 mi NW 5.8 mph - N/A   Clear
6:55 PM 56.3 °F 37.4 °F 49% 30.01 in 10.0 mi NW 4.6 mph - N/A   Clear
7:15 PM 54.1 °F 37.9 °F 54% 30.01 in 10.0 mi NW 4.6 mph - N/A   Clear
7:35 PM 51.8 °F 38.7 °F 61% 30.02 in 10.0 mi NW 3.5 mph - N/A   Clear
7:55 PM 51.1 °F 38.3 °F 62% 30.02 in 10.0 mi NW 4.6 mph - N/A   Clear
8:15 PM 50.7 °F 38.8 °F 64% 30.03 in 10.0 mi NW 3.5 mph - N/A   Clear
8:35 PM 49.6 °F 38.8 °F 66% 30.05 in 10.0 mi Calm Calm - N/A   Clear
8:55 PM 49.1 °F 38.8 °F 68% 30.05 in 10.0 mi NW 3.5 mph - N/A   Clear
9:15 PM 48.7 °F 39.2 °F 70% 30.06 in 10.0 mi Calm Calm - N/A   Clear
9:35 PM 47.3 °F 39.2 °F 73% 30.06 in 10.0 mi Calm Calm - N/A   Clear
9:55 PM 46.4 °F 39.2 °F 76% 30.07 in 10.0 mi Calm Calm - N/A   Clear
10:15 PM 44.4 °F 39.6 °F 83% 30.07 in 10.0 mi Calm Calm - N/A   Clear
10:35 PM 44.6 °F 39.2 °F 81% 30.07 in 10.0 mi Calm Calm - N/A   Clear
10:55 PM 44.1 °F 39.2 °F 83% 30.08 in 10.0 mi Calm Calm - N/A   Clear
11:15 PM 41.4 °F 38.5 °F 89% 30.08 in 10.0 mi Calm Calm - N/A   Clear
11:35 PM 40.5 °F 38.5 °F 93% 30.08 in 10.0 mi Calm Calm - N/A   Clear
11:55 PM 40.3 °F 38.7 °F 94% 30.09 in 10.0 mi Calm Calm - N/A   Clear